COSMO-SKYMED 3

Last updated on Tue Oct 21 2025 00:02:30 GMT+0000 (Coordinated Universal Time)

1 33412U 08054A 25293.61221197 .00007865 00000+0 56223-3 0 9996 2 33412 97.8520 143.1193 0016642 1.4513 358.6758 15.04640830920881
UTC large
Height (km)
Speed (km/s)
/
Latitude / Longitude
Inclination (degrees)
Orbital Period (minutes)
Azimuth
Elevation
Range (km)
Doppler Factor

Next 0 passes for location: London (51.5072 / 0.1276)

Sorry there are no passes over London.